Regional Weather Roundup
Issued by NWS Charleston, SC

Current Version | Previous Version | Graphics & Text | Print | Product List | Glossary On
Versions: 1 2 3 4 5 6 7 8 9 10 11 12 13 14 15 16 17 18 19 20 21 22 23 24 25 26 27 28 29 30 31 32 33 34 35 36 37 38 39 40 41 42 43 44 45 46 47 48 49 50
000
ASUS42 KCHS 060312
RWRCHS

REGIONAL WEATHER ROUNDUP
NATIONAL WEATHER SERVICE CHARLESTON SC
1100 PM EDT TUE MAY 05 2015

NOTE: "FAIR" INDICATES FEW OR NO CLOUDS BELOW 12,000 FEET WITH NO
SIGNIFICANT WEATHER AND/OR OBSTRUCTIONS TO VISIBILITY.

NOT ALL STATIONS ARE QUALITY CONTROLLED BY THE NATIONAL
WEATHER SERVICE. USE DATA WITH CAUTION...ESPECIALLY
DEWPOINT OBSERVATIONS.

SCZ027-030-031-034>040-042>050-060400-
...SOUTHEAST SOUTH CAROLINA...

CITY           SKY/WX    TMP DP  RH WIND       PRES   REMARKS
N CHARLESTON   PTCLDY    65  59  81 NE3       30.25F
WATERFRONT PRK   N/A     70 N/A N/A E9          N/A
MOUNT PLEASANT FAIR      63  61  94 MISG      30.25S
PINOPOLIS      NOT AVBL
MONCKS CORNER  FAIR      61  57  88 CALM      30.26S
SUMMERVILLE    FAIR      61  59  94 CALM      30.26S
BEAUFORT MCAS  MOCLDY    69  62  78 E7        30.24F
BEAUFORT ARPT  FAIR      70  64  83 E10       30.23F
HILTON HEAD IS PTCLDY    70  64  83 NE7       30.24F
WALTERBORO     MOCLDY    61  57  88 E3        30.26S
ALLENDALE      MOCLDY    64  59  82 CALM      30.24S

...SOUTHERN MIDLANDS AND PEE DEE...

CITY           SKY/WX    TMP DP  RH WIND       PRES   REMARKS
GEORGETOWN     NOT AVBL
KINGSTREE      NOT AVBL
ORANGEBURG     MOCLDY    66  53  63 E5        30.26R
BARNWELL       FAIR      68  55  64 SE5       30.26R
AIKEN          FAIR      66  50  55 SE3       30.29R
MANNING        FAIR      57  52  82 CALM      30.26F
COLUMBIA       MOCLDY    70  52  52 CALM      30.25R
SUMTER         PTCLDY    65  52  62 SE1       30.25R
FLORENCE       MOCLDY    64  55  72 SE5       30.26F
MYRTLE BEACH   PTCLDY    68  61  77 NE6       30.29R
N MYRTLE BEACH PTCLDY    62  59  90 CALM      30.27S

$$

GAZ063-065-086>088-099>101-113>116-118-119-134>141-150-060400-
...SOUTHEAST GEORGIA...

CITY           SKY/WX    TMP DP  RH WIND       PRES   REMARKS
SAVANNAH ARPT  MOCLDY    67  58  72 E3        30.24R
HUNTER AAF     MOCLDY    70  64  79 NE5       30.21S
FORT STEWART   CLOUDY    69  60  74 NE5       30.21S
STATESBORO       N/A     63  59  86 CALM      30.24S
SYLVANIA       MOCLDY    63  60  90 CALM      30.25S
CLAXTON        MOCLDY    63  61  94 CALM      30.23S

...CSRA...CENTRAL AND FAR SOUTHEAST GEORGIA...

CITY           SKY/WX    TMP DP  RH WIND       PRES   REMARKS
THOMSON        PTCLDY    63  59  88 CALM      30.29S
AUGUSTA-BUSH   MOCLDY    60  54  80 CALM      30.24R
AUGUSTA-DANIEL MOCLDY    72  51  47 E5        30.25R
SWAINSBORO     FAIR      68  46  45 SE5       30.24S
VIDALIA        MOCLDY    66  59  77 E3        30.24R
EASTMAN        FAIR      69  57  66 SE6       30.25S
HAZLEHURST     FAIR      70  60  70 SE3       30.22S
ALMA           MOCLDY    66  59  78 E3        30.22S
WAYCROSS       PTCLDY    68  64  84 E5        30.21S
JESUP          CLOUDY    70  63  78 NE3       30.22S
BAXLEY         FAIR      68  61  77 CALM      30.22S
BRUNSWICK      CLOUDY    72  63  73 NE8       30.22S
SAINT SIMONS   CLOUDY    70  64  81 NE15      30.20S

$$

SCZ027-028-034-036>038-045-046-048>050-GAZ119-141-060400-
...LAKE AND SUPPLEMENTAL COASTAL OBSERVATIONS...

STATION/POSITION TIME  TEMP    WIND        PRES    WAVE   SWELL
                       AIR SEA DIR/SP/G            HT/PER HT/PER/DIR
                 (UTC) (F)     (DEG/KT/KT) (MB)    (FT/S) (FT/S/D)
UPR LAKE MARION  NOT AVBL
WINYAH BAY       NOT AVBL
LAKE MURRAY      0200   72     120/  4/  7 1023.7R
ACE BASIN NERRS  NOT AVBL
FORT PULASKI     0200   71 72   50/ 14/ 17 1024.0S
SAPELO ISLAND    0200   70      50/  9     1023.0S

$$

ANZ835-935-AMZ111-154-330-350-352-354-370-450-454-472-060400-
...C-MAN AND BUOY OBSERVATIONS...

STATION/POSITION TIME  TEMP    WIND        PRES    WAVE   SWELL
                       AIR SEA DIR/SP/G            HT/PER HT/PER/DIR
                 (UTC) (F)     (DEG/KT/KT) (MB)    (FT/S) (FT/S/D)
BUOY 41004       0250   74 73   90/ 14/ 16 1023.4S   4/ 7   2/ 7
BUOY 41008       0250   70 70   40/ 14/ 17 1022.5F   4/ 7   2/110/ 7
FOLLY BEACH CMAN 0200   70      60/ 11/ 13 1024.4R
CAPERS NEARSHORE 0208   70      80/ 12/ 16 1024.4R
FRIPP NEARSHORE  0200   71      60/ 14/ 17 1023.0R


STATION/POSITION TIME  TEMP    WIND        PRES    WAVE   SWELL
                       AIR SEA DIR/SP/G            HT/PER HT/PER/DIR
                 (UTC) (F)     (DEG/KT/KT) (MB)    (FT/S) (FT/S/D)
5E ST. MARYS GA  0221      71                N/A     5/ 6
FRYING PAN BUOY  0250   73 72  120/ 10/ 12 1025.8R   4/ 6   3/130/ 6
BUOY 41025       0250   71 75  160/ 12/ 14 1026.1F   3/11   2/ 70/11
CAPE LOOKOUT NC  0200   68     150/  5/  6 1025.7R
BUOY 41002       0250   70 70  110/ 17/ 21 1024.2F   6/ 7   2/110/11
BUOY 41010       0220   74 78   70/ 16/ 19 1019.1R
ST AUGUSTINE FL  0300   71 72   30/ 11/ 12 1021.9R


$$


USA.gov is the U.S. government's official web portal to all federal, state and local government web resources and services.